Flag for South Africa Weather past 2 weeks in Pretoria, South Africa

Now
36 °F

Chilly.


Feels Like: 36 °F
Forecast: 39 / 71 °F
Wind: 1 mph from South

Location: Waterkloof Lmb

Current Time: Jul 28, 2015 at 4:12:54 AM

Latest Report: Jul 28, 2015 at 3:00 AM


Visibility: N/A

Pressure: 30.30 "Hg (25.66 "Hg at 1338m altitude)

Humidity: 75%

Dew point: 28 °F

Location of PretoriaLocation

Historic Weather in Pretoria — Graph

°F

Pretoria temperature yesterday

Maximum temperature yesterday: 63 °F (at 2:00 PM)
Minimum temperature yesterday: 34 °F (at 7:00 AM)
Average temperature yesterday: 50 °F

Past Weeks' High & Low Weather Summary

 TemperatureHumidityPressure
High72 °F (Jul 13, 2:00 PM)100% (Jul 26, 7:00 AM)30.48 "Hg (Jul 26, 7:00 AM)
Low32 °F (Jul 18, 5:00 AM)9% (Jul 18, 1:00 PM)30.04 "Hg (Jul 16, 5:00 PM)
Average54 °F49%30.28 "Hg
* Reported Jul 13 3:00 AM — Jul 28 3:00 AM, Pretoria, Weather by CustomWeather, © 2015

Note: Actual official high and low records may vary slightly from our data, if they occured in-between our weather recording intervals... More about our weather records

Advertising

Pretoria weather history for previous 24 hours

 ConditionsComfort  
Time TempWeatherWind HumidityBarometerVisibility
3:00 AM
Tue, Jul 28
36 °FChilly.1 mph75%30.30 "HgN/A
2:00 AM37 °FChilly.No wind70%30.30 "HgN/A
1:00 AM37 °FChilly.2 mph70%30.30 "HgN/A
12:00 AM39 °FChilly.No wind61%30.30 "HgN/A
11:00 PM
Mon, Jul 27
45 °FQuite cool.2 mph46%30.30 "HgN/A
10:00 PM46 °FCool.1 mph46%30.30 "HgN/A
9:00 PM46 °FCool.1 mph43%30.33 "HgN/A
8:00 PM46 °FCool.1 mph37%30.30 "HgN/A
7:00 PM50 °FCool.5 mph35%30.30 "HgN/A
6:00 PM54 °FCool.3 mph30%30.27 "HgN/A
5:00 PM61 °FRefreshingly cool.6 mph23%30.27 "HgN/A
4:00 PM63 °FMild.3 mph22%30.27 "HgN/A
3:00 PM63 °FMild.6 mph24%30.27 "HgN/A
2:00 PM63 °FMild.5 mph25%30.30 "HgN/A
1:00 PM61 °FRefreshingly cool.7 mph29%30.30 "HgN/A
12:00 PM59 °FRefreshingly cool.8 mph34%30.36 "HgN/A
11:00 AM57 °FRefreshingly cool.8 mph36%30.39 "HgN/A
10:00 AM54 °FCool.8 mph44%30.42 "HgN/A
9:00 AM52 °FCool.6 mph47%30.39 "HgN/A
8:00 AM46 °FCool.7 mph57%30.39 "HgN/A
7:00 AM34 °FChilly.2 mph93%30.36 "HgN/A
6:00 AM36 °FChilly.2 mph87%30.33 "HgN/A
5:00 AM41 °FQuite cool.3 mph76%30.33 "HgN/A
4:00 AM39 °FChilly.1 mph75%30.33 "HgN/A
Weather by CustomWeather, © 2015

See weather overviewHow to use our weather pages